Regional Weather Roundup
Issued by NWS

Home | Current Version | Previous Version | Graphics & Text | Print | Product List | Glossary On
Versions: 1 2 3 4 5 6 7 8 9 10 11 12 13 14 15 16 17 18 19 20 21 22 23 24 25 26 27 28 29 30 31 32 33 34 35 36 37 38 39 40 41 42 43 44 45 46 47 48 49 50
000
ASUS43 KLOT 240310
RWRIL

ILLINOIS REGIONAL WEATHER ROUNDUP
NATIONAL WEATHER SERVICE CHICAGO/ROMEOVILLE IL
1000 PM CDT THU OCT 23 2014

NOTE: "FAIR" INDICATES FEW OR NO CLOUDS BELOW 12,000 FEET WITH NO
SIGNIFICANT WEATHER AND/OR OBSTRUCTIONS TO VISIBILITY.

* THESE STATIONS ARE NOT UNDER NWS QUALITY CONTROL. THEY ALSO MAY NOT
  REPORT WEATHER SUCH AS PRECIPITATION OR FOG.

ILZ001-002-007-009-015-016-024-240400-
NORTHWEST ILLINOIS

CITY           SKY/WX    TMP DP  RH WIND       PRES   REMARKS
MOLINE         CLOUDY    57  48  72 CALM      30.06R
STERLING*      CLOUDY    54  45  71 CALM      30.06S
SAVANNA*       CLOUDY    53  51  92 CALM      30.06S
$$

ILZ003-004-008-010-011-017-018-240400-
NORTH CENTRAL ILLINOIS

CITY           SKY/WX    TMP DP  RH WIND       PRES   REMARKS
ROCKFORD       CLOUDY    52  48  86 CALM      30.08S
FREEPORT*      CLOUDY    51  48  89 S3        30.07S
ROCHELLE*      CLOUDY    51  47  87 S3        30.07S
DE KALB*       CLOUDY    47  44  87 S6        30.07S
PERU*          CLOUDY    55  45  67 S7        30.08S
$$

ILZ005-006-012>014-019>023-240400-
NORTHEAST ILLINOIS

CITY           SKY/WX    TMP DP  RH WIND       PRES   REMARKS
CHICAGO-OHARE  CLOUDY    55  42  61 S8        30.07F
CHICAGO-MIDWAY CLOUDY    57  42  57 S8        30.08F
AURORA         CLOUDY    54  43  66 S5        30.08S
LANSING*       CLOUDY    52  44  73 SW3       30.10R
JOLIET*        CLOUDY    54  44  71 CALM      30.09S
WAUKEGAN       CLOUDY    51  46  83 CALM      30.06S
DUPAGE AIRPORT CLOUDY    53  43  68 S7        30.07S
KANKAKEE*      CLOUDY    51  44  76 S3        30.11R
WHEELING       CLOUDY    57  42  57 S6        30.08F
MORRIS*        CLOUDY    52  48  87 S6        30.08S
ROMEOVILLE*    CLOUDY    53  43  69 S6        30.08S
NORTHERLY ISL    N/A     56  41  57 S8          N/A
$$

LMZ740>746-240400-
SOUTHERN LAKE MICHIGAN

STATION/POSITION SKY/WX   TEMP    WIND        PRES    VSBY  WAVE
                          AIR SEA DIR/SP/G                  HT/PER
                          (F)     (DEG/KT/KT) (MB)    (MI)  (FT/S)
SOUTHERN BUOY              55 54  190/ 12/ 16 1018.6F         1/ 4
WAUKEGAN HARBOR            53     220/  4/  7   N/A
HARRISON CRIB              56     190/ 10/ 11   N/A
BURNHAM HARBOR             56     180/  6/  8   N/A
CALUMET HARBOR             55     180/  5/  7 1017.5F
MICHIGAN CITY              52     150/  6/  7   N/A
$$

ILZ025>027-034>036-040-047-049-050-058-095>099-240400-
WEST-CENTRAL ILLINOIS

CITY           SKY/WX    TMP DP  RH WIND       PRES   REMARKS
QUINCY         CLOUDY    55  51  86 S7        30.08R
GALESBURG*     CLOUDY    52  48  87 CALM      30.07S
MACOMB*        MOCLDY    51  49  91 CALM      30.09S
JACKSONVILLE*  CLOUDY    60  46  61 S6        30.09R
PITTSFIELD*    CLOUDY    57  51  81 S5        30.09S
$$

ILZ028>032-037-038-041>044-048-051>054-059>061-240400-
CENTRAL ILLINOIS

CITY           SKY/WX    TMP DP  RH WIND       PRES   REMARKS
PONTIAC        CLOUDY    54  46  72 S3        30.10S
BLOOMINGTON    CLOUDY    53  46  77 S12       30.10S
DECATUR        CLOUDY    54  44  69 SW7       30.11S
PEORIA         CLOUDY    58  45  62 SW7       30.08S
LACON*         CLOUDY    55  45  68 CALM      30.08R
LINCOLN*       CLOUDY    54  47  77 S3        30.08F
SPRINGFIELD    CLOUDY    58  44  60 S7        30.09F
TAYLORVILLE    CLOUDY    54  45  71 S5        30.10S
$$

ILZ033-039-045-046-055>057-062-063-240400-
EAST-CENTRAL ILLINOIS

CITY           SKY/WX    TMP DP  RH WIND       PRES   REMARKS
CHAMPAIGN      PTCLDY    46  41  82 S7        30.11R
DANVILLE*      PTCLDY    47  41  78 CALM      30.09R
RANTOUL*       CLOUDY    51  44  75 CALM      30.11S
MATTOON        CLEAR     51  42  71 S6        30.11S
PARIS*         MOCLDY    47  43  86 CALM      30.12S
$$

ILZ079-100>102-240400-
SOUTHWEST ILLINOIS

CITY           SKY/WX    TMP DP  RH WIND       PRES   REMARKS
ALTON          CLOUDY    57  43  58 S6        30.10S
BELLEVILLE     CLOUDY    55  48  79 CALM      30.10F
CAHOKIA*       CLEAR     55  46  71 S5        30.10F
SPARTA*        CLEAR     52  45  77 CALM      30.13S
$$

ILZ064>066-069>071-074>076-080>082-084>086-088>090-092>094-240400-
SOUTH-CENTRAL ILLINOIS

CITY           SKY/WX    TMP DP  RH WIND       PRES   REMARKS
CARBONDALE     PTCLDY    46  42  86 SE5       30.13F
CAIRO*         CLEAR     46  42  85 CALM      30.15S
EFFINGHAM*     CLEAR     49  40  70 CALM      30.12S
MARION         CLEAR     50  45  81 S3        30.14F
MT. VERNON     CLEAR     46  43  87 CALM      30.14S
CENTRALIA*     PTCLDY    50  43  77 S5        30.12F
SALEM*         CLEAR     51  47  83 S3        30.13S
METROPOLIS*    PTCLDY    48  48 100 CALM      30.13F FOG
$$

ILZ067-068-072-073-078-083-087-091-240400-
SOUTHEAST ILLINOIS

CITY           SKY/WX    TMP DP  RH WIND       PRES   REMARKS
LAWRENCEVILLE  CLOUDY    49  46  90 SE3       30.13F
FLORA*         CLOUDY    45  41  86 CALM      30.13F
FAIRFIELD*     PTCLDY    45  43  95 CALM      30.12F
HARRISBURG*    PTCLDY    46  46  99 CALM      30.15F
ROBINSON*      CLOUDY    50  46  85 SW5       30.13F
CARMI*         CLOUDY    48  46  94 CALM      30.13S
$$

ABBREVIATIONS USED IN REMARKS
   TC - TEMPERATURE IN CELSIUS
  WCI - WIND CHILL INDEX
   HX - HEAT INDEX
  VSB - VISIBILITY
$$




USA.gov is the U.S. government's official web portal to all federal, state and local government web resources and services.